TimeEST,TemperatureF,Dew PointF,Humidity,Sea Level PressureIn,VisibilityMPH,Wind Direction,Wind SpeedMPH,Gust SpeedMPH,PrecipitationIn,Events,Conditions,WindDirDegrees,DateUTC
12:53 AM,77.0,70.0,79,30.13,10.0,ENE,5.8,-,N/A,,Clear,70,2011-11-20 05:53:00
1:53 AM,75.9,70.0,82,30.12,10.0,NE,5.8,-,N/A,,Scattered Clouds,50,2011-11-20 06:53:00
2:41 AM,75.2,71.6,89,30.11,10.0,ENE,4.6,-,N/A,,Overcast,60,2011-11-20 07:41:00
2:53 AM,75.9,71.1,85,30.11,10.0,NE,5.8,-,N/A,,Overcast,50,2011-11-20 07:53:00
3:34 AM,75.2,71.6,89,30.11,10.0,NE,6.9,-,N/A,,Scattered Clouds,50,2011-11-20 08:34:00
3:53 AM,75.9,71.1,85,30.10,10.0,NE,6.9,-,N/A,,Mostly Cloudy,50,2011-11-20 08:53:00
4:34 AM,75.2,71.6,89,30.10,10.0,NE,9.2,-,N/A,,Scattered Clouds,50,2011-11-20 09:34:00
4:53 AM,75.9,72.0,87,30.10,10.0,NE,10.4,-,N/A,,Scattered Clouds,50,2011-11-20 09:53:00
5:01 AM,75.2,71.6,89,30.10,10.0,NE,8.1,16.1,N/A,,Mostly Cloudy,50,2011-11-20 10:01:00
5:31 AM,75.2,71.6,89,30.11,10.0,NE,6.9,-,N/A,,Scattered Clouds,50,2011-11-20 10:31:00
5:53 AM,75.9,72.0,87,30.12,10.0,NE,5.8,-,N/A,,Clear,50,2011-11-20 10:53:00
7:06 AM,75.2,73.4,94,30.14,10.0,NNE,10.4,-,N/A,,Overcast,30,2011-11-20 12:06:00
7:53 AM,77.0,73.0,88,30.15,10.0,NE,9.2,-,N/A,,Scattered Clouds,40,2011-11-20 12:53:00
8:27 AM,78.8,73.4,83,30.16,10.0,NE,5.8,-,N/A,,Mostly Cloudy,50,2011-11-20 13:27:00
8:53 AM,78.1,73.0,84,30.17,10.0,NE,9.2,-,0.00,,Mostly Cloudy,50,2011-11-20 13:53:00
9:19 AM,78.8,73.4,83,30.18,10.0,East,8.1,-,N/A,,Overcast,90,2011-11-20 14:19:00
9:53 AM,80.1,72.0,76,30.18,10.0,East,9.2,-,N/A,,Overcast,80,2011-11-20 14:53:00
10:53 AM,80.1,73.9,81,30.17,10.0,East,10.4,-,0.00,,Mostly Cloudy,90,2011-11-20 15:53:00
11:53 AM,82.9,73.9,74,30.16,10.0,East,9.2,-,N/A,,Scattered Clouds,100,2011-11-20 16:53:00
12:53 PM,82.4,73.4,74,30.14,10.0,East,13.8,-,N/A,,Scattered Clouds,100,2011-11-20 17:53:00
1:53 PM,82.0,73.0,74,30.12,10.0,East,11.5,-,N/A,,Partly Cloudy,100,2011-11-20 18:53:00
2:53 PM,82.0,73.0,74,30.11,10.0,East,13.8,19.6,N/A,,Partly Cloudy,100,2011-11-20 19:53:00
3:34 PM,82.4,73.4,74,30.11,10.0,East,12.7,-,N/A,,Mostly Cloudy,90,2011-11-20 20:34:00
3:46 PM,80.6,71.6,74,30.11,10.0,East,11.5,18.4,N/A,,Mostly Cloudy,90,2011-11-20 20:46:00
3:53 PM,82.0,73.0,74,30.11,10.0,East,13.8,-,N/A,,Scattered Clouds,90,2011-11-20 20:53:00
4:53 PM,80.1,72.0,76,30.12,10.0,East,12.7,19.6,N/A,,Clear,90,2011-11-20 21:53:00
5:53 PM,79.0,72.0,79,30.12,10.0,East,9.2,-,N/A,,Clear,80,2011-11-20 22:53:00
6:53 PM,78.1,72.0,81,30.14,10.0,ENE,6.9,-,N/A,,Clear,60,2011-11-20 23:53:00
7:53 PM,78.1,72.0,81,30.16,10.0,ENE,6.9,-,N/A,,Clear,70,2011-11-21 00:53:00
8:53 PM,78.8,73.4,83,30.17,10.0,ENE,8.1,-,N/A,,Clear,60,2011-11-21 01:53:00
9:53 PM,78.1,73.0,84,30.17,10.0,NE,8.1,16.1,N/A,,Scattered Clouds,50,2011-11-21 02:53:00
10:53 PM,78.1,73.0,84,30.17,10.0,ENE,4.6,-,N/A,,Partly Cloudy,60,2011-11-21 03:53:00
11:45 PM,77.0,73.4,89,30.16,10.0,NE,6.9,-,N/A,,Mostly Cloudy,40,2011-11-21 04:45:00
11:53 PM,77.0,73.9,90,30.16,10.0,NE,6.9,-,N/A,,Overcast,50,2011-11-21 04:53:00